EW1895 Weather Reports


Display with metric or nautical units.
time (UTC)temp
F
wind
direction
speed
MPH
gust
MPH
rain 1hr
in
rain 24hr
in
rain mn
in
humidity
%
barometer
mb
20260906031518 70 324 0.0 0.0 0.00 0.00 0.00 95 1012.5
20260906030015 71 324 0.0 0.0 0.00 0.00 0.00 95 1012.4
20260906024514 71 324 0.0 0.0 0.00 0.00 0.00 94 1012.3
20260906023015 71 324 0.0 0.0 0.00 0.00 0.00 95 1012.4
20260906021513 71 324 0.0 0.0 0.00 0.00 0.00 94 1012.4
20260906020012 72 324 0.0 0.0 0.00 0.00 0.00 94 1012.6
20260906014525 72 324 0.0 0.0 0.00 0.00 0.00 94 1012.4
20260906013015 72 324 0.0 0.0 0.00 0.00 0.00 94 1012.2
20260906011517 73 324 0.0 0.0 0.00 0.00 0.00 94 1012.1
20260906010011 73 324 0.0 0.0 0.00 0.00 0.00 94 1011.9
20260906004514 73 324 0.0 0.0 0.00 0.00 0.00 94 1011.5
20260906003011 73 324 0.0 0.0 0.00 0.00 0.00 94 1011.4
20260906001510 74 324 0.0 0.0 0.00 0.00 0.00 93 1011.2
20260906000010 74 324 0.0 0.0 0.00 0.00 0.00 93 1011.0
20260905234510 74 324 0.0 0.0 0.00 0.00 0.00 93 1010.8
20260905233010 75 324 0.0 0.0 0.00 0.00 0.00 93 1010.8
20260905231509 75 324 0.0 0.0 0.00 0.00 0.00 92 1010.7
20260905230012 76 324 0.0 0.0 0.00 0.00 0.00 91 1011.0
20260905224523 76 324 0.0 0.0 0.00 0.00 0.00 90 1010.9
20260905223008 77 324 0.0 0.0 0.00 0.00 0.00 88 1011.1
20260905221508 77 324 0.0 0.0 0.00 0.00 0.00 87 1011.0
20260905220008 77 324 0.0 0.0 0.00 0.00 0.00 86 1010.7
20260905214506 77 324 0.0 0.0 0.00 0.00 0.00 87 1010.8
20260905213005 78 324 0.0 0.0 0.00 0.00 0.00 84 1010.8
20260905211504 78 324 0.0 0.0 0.00 0.00 0.00 83 1010.8
20260905210010 78 324 0.0 0.0 0.00 0.00 0.00 85 1010.8
20260905204503 78 324 0.0 0.0 0.00 0.00 0.00 86 1010.8
20260905203003 78 324 0.0 0.0 0.00 0.00 0.00 84 1010.8
20260905201503 77 324 0.0 0.0 0.00 0.00 0.00 87 1010.9
20260905200002 76 324 0.0 0.0 0.00 0.00 0.00 92 1010.8
20260905194502 75 324 0.0 0.0 0.00 0.00 0.00 94 1010.9
20260905193109 75 324 0.0 0.0 0.00 0.00 0.00 94 1011.1
20260905191600 75 324 0.0 0.0 0.00 0.00 0.00 95 1011.6
20260905184558 74 324 0.0 0.0 0.00 0.00 0.00 95 1012.2
20260905183059 74 324 0.0 0.0 0.00 0.00 0.00 95 1012.2
20260905181601 74 324 0.0 0.0 0.00 0.00 0.00 94 1011.7
20260905180101 74 324 0.0 0.0 0.00 0.00 0.00 95 1011.3
20260905174557 74 324 0.0 1.0 0.00 0.00 0.00 95 1011.6
20260905173057 72 338 0.0 1.0 0.00 0.00 0.00 95 1011.5
20260905171556 71 341 0.0 0.0 0.00 0.00 0.00 94 1011.4
20260905170059 71 340 0.0 0.0 0.00 0.00 0.00 93 1012.4
20260905164535 71 340 0.0 0.0 0.00 0.00 0.00 92 1013.1
20260905163036 73 340 0.0 7.0 0.00 0.00 0.00 89 1013.5
20260905161556 78 325 1.0 7.0 0.00 0.00 0.00 86 1014.0
20260905160055 79 321 0.0 0.0 0.00 0.00 0.00 84 1013.0
20260905154556 80 319 0.0 0.0 0.00 0.00 0.00 84 1012.4
20260905153052 80 319 0.0 0.0 0.00 0.00 0.00 84 1012.3
20260905151554 80 319 0.0 0.0 0.00 0.00 0.00 83 1012.2
20260905150057 80 319 0.0 0.0 0.00 0.00 0.00 82 1012.4
20260905144553 80 319 0.0 0.0 0.00 0.00 0.00 83 1012.4
20260905143054 80 319 0.0 3.0 0.00 0.00 0.00 80 1012.3
20260905141545 79 329 0.0 2.0 0.00 0.00 0.00 84 1012.3
20260905140041 77 323 0.0 3.0 0.00 0.00 0.00 89 1012.1
20260905134536 75 313 0.0 1.0 0.00 0.00 0.00 94 1012.0
20260905133032 74 313 0.0 0.0 0.00 0.00 0.00 97 1012.0
20260905131544 73 264 0.0 1.0 0.00 0.00 0.00 97 1011.9
20260905130027 72 151 0.0 0.0 0.00 0.00 0.00 97 1011.9
20260905124527 72 151 0.0 0.0 0.00 0.00 0.00 97 1011.6
20260905123021 71 151 0.0 0.0 0.00 0.00 0.00 97 1011.7
20260905121520 70 151 0.0 0.0 0.00 0.00 0.00 97 1011.8
20260905120017 69 151 0.0 0.0 0.00 0.00 0.00 96 1012.0
20260905114524 68 151 0.0 0.0 0.00 0.00 0.00 96 1011.9
20260905113023 68 151 0.0 0.0 0.00 0.00 0.00 96 1011.8
20260905111512 68 151 0.0 0.0 0.00 0.00 0.00 96 1011.6
20260905110012 68 151 0.0 0.0 0.00 0.00 0.00 96 1011.4
20260905104518 68 151 0.0 0.0 0.00 0.00 0.00 96 1011.3
20260905103019 69 151 0.0 0.0 0.00 0.00 0.00 96 1011.1
20260905101508 69 151 0.0 0.0 0.00 0.00 0.00 96 1011.0
20260905100017 69 151 0.0 0.0 0.00 0.00 0.00 96 1010.8
20260905094511 69 151 0.0 0.0 0.00 0.00 0.00 96 1010.8
20260905093006 69 151 0.0 0.0 0.00 0.00 0.00 96 1010.6
20260905091505 69 151 0.0 0.0 0.00 0.00 0.00 96 1010.7
20260905090004 69 151 0.0 0.0 0.00 0.00 0.00 96 1010.7
20260905084501 69 151 0.0 0.0 0.00 0.00 0.00 96 1010.6
20260905083100 69 151 0.0 0.0 0.00 0.00 0.00 96 1010.7
20260905081605 69 151 0.0 0.0 0.00 0.00 0.00 96 1010.8
20260905074558 69 151 0.0 0.0 0.00 0.00 0.00 96 1011.0
20260905073057 69 151 0.0 0.0 0.00 0.00 0.00 96 1011.2
20260905071557 69 151 0.0 0.0 0.00 0.00 0.00 96 1011.3
20260905070059 70 151 0.0 0.0 0.00 0.00 0.00 96 1011.4
20260905064600 70 151 0.0 0.0 0.00 0.00 0.00 96 1011.4
20260905063101 69 151 0.0 0.0 0.00 0.00 0.00 96 1011.4
20260905061609 69 151 0.0 0.0 0.00 0.00 0.00 96 1011.8
20260905060051 70 151 0.0 0.0 0.00 0.00 0.00 96 1012.0
20260905054549 69 151 0.0 0.0 0.00 0.00 0.00 96 1012.2
20260905053053 69 151 0.0 0.0 0.00 0.00 0.00 96 1012.7
20260905051546 70 151 0.0 0.0 0.00 0.00 0.00 96 1012.9
20260905050043 70 151 0.0 0.0 0.00 0.00 0.00 96 1013.0
20260905044541 70 151 0.0 0.0 0.00 0.00 0.00 96 1013.3
20260905043040 70 151 0.0 0.0 0.00 0.00 0.00 96 1013.5
20260905041537 70 151 0.0 0.0 0.00 0.00 0.00 96 1013.6
20260905040036 70 151 0.0 0.0 0.00 0.00 0.00 96 1013.6
20260905034535 70 151 0.0 0.0 0.00 0.00 0.00 96 1013.6
20260905033036 70 151 0.0 0.0 0.00 0.00 0.00 96 1013.6